GW1450 Weather Reports


time (UTC)temp
C
wind
direction
speed
KPH
gust
KPH
rain 1hr
cm
rain 24hr
cm
rain mn
cm
humidity
%
barometer
mb
20260506023150 21 175 4.8 9.7 0.00 0.00 0.00 55 1012.4
20260506021537 22 116 1.6 9.7 0.00 0.00 0.00 51 1012.3
20260506020035 22 308 1.6 12.9 0.00 0.00 0.00 51 1012.3
20260506014529 23 112 3.2 17.7 0.00 0.00 0.00 49 1012.2
20260506010035 23 110 6.4 24.1 0.00 0.00 0.00 47 1012.2
20260506004535 24 100 8.0 22.5 0.00 0.00 0.00 46 1012.2
20260506003108 25 141 4.8 17.7 0.00 0.00 0.00 45 1012.1
20260506001533 25 160 4.8 17.7 0.00 0.00 0.00 45 1012.1
20260506000036 25 148 9.7 20.9 0.00 0.00 0.00 44 1012.2
20260505233031 25 183 4.8 17.7 0.00 0.00 0.00 44 1012.3
20260505231531 25 129 6.4 16.1 0.00 0.00 0.00 44 1012.5
20260505230031 25 146 8.0 20.9 0.00 0.00 0.00 44 1012.5
20260505224537 25 189 4.8 16.1 0.00 0.00 0.00 44 1012.6
20260505223034 25 129 4.8 16.1 0.00 0.00 0.00 44 1012.7
20260505221533 25 164 1.6 14.5 0.00 0.00 0.00 44 1012.9
20260505220031 25 152 4.8 14.5 0.00 0.00 0.00 45 1013.0
20260505214606 25 340 3.2 12.9 0.00 0.00 0.00 46 1013.1
20260505213032 24 125 6.4 16.1 0.00 0.00 0.00 46 1013.2
20260505211530 25 137 6.4 14.5 0.00 0.00 0.00 46 1013.3
20260505210037 25 290 4.8 14.5 0.00 0.00 0.00 45 1013.5
20260505204530 24 92 3.2 12.9 0.00 0.00 0.00 46 1013.5
20260505203038 23 249 4.8 14.5 0.00 0.00 0.00 47 1013.7
20260505200036 23 192 4.8 12.9 0.00 0.00 0.00 49 1013.8
20260505194534 22 208 4.8 17.7 0.00 0.00 0.00 49 1013.9
20260505191536 22 157 6.4 16.1 0.00 0.00 0.00 51 1014.1
20260505190035 21 205 8.0 20.9 0.00 0.00 0.00 51 1014.1
20260505184534 21 173 6.4 17.7 0.00 0.00 0.00 52 1014.3
20260505181531 21 153 4.8 17.7 0.00 0.00 0.00 54 1014.3
20260505180131 20 182 6.4 17.7 0.00 0.00 0.00 55 1014.3
20260505171534 20 185 0.0 6.4 0.00 0.00 0.00 57 1014.3
20260505170037 18 108 1.6 6.4 0.00 0.00 0.00 59 1014.4
20260505164535 17 85 0.0 8.0 0.00 0.00 0.00 63 1014.4
20260505163030 17 70 3.2 9.7 0.00 0.00 0.00 64 1014.5
20260505161645 17 73 1.6 6.4 0.00 0.00 0.00 66 1014.5
20260505153107 15 178 6.4 9.7 0.00 0.00 0.00 73 1014.2
20260505151607 15 162 0.0 6.4 0.00 0.00 0.00 74 1014.1
20260505121534 10 202 0.0 0.0 0.00 0.00 0.00 91 1012.3
20260505120030 10 202 0.0 0.0 0.00 0.00 0.00 89 1012.2
20260505114534 10 202 0.0 4.8 0.00 0.00 0.00 89 1012.2
20260505113034 10 202 0.0 0.0 0.00 0.00 0.00 88 1012.0
20260505111533 11 202 0.0 3.2 0.00 0.00 0.00 88 1011.9
20260505101530 12 185 0.0 6.4 0.00 0.00 0.00 84 1011.5
20260505100038 11 180 0.0 3.2 0.00 0.00 0.00 85 1011.5
20260505094536 12 181 0.0 3.2 0.00 0.00 0.00 83 1011.4
20260505093036 12 204 0.0 3.2 0.00 0.00 0.00 81 1011.4
20260505091530 13 183 0.0 4.8 0.00 0.00 0.00 80 1011.2
20260505090031 13 180 0.0 4.8 0.00 0.00 0.00 79 1011.1
20260505083035 13 187 1.6 8.0 0.00 0.00 0.00 77 1011.2
20260505081536 13 202 0.0 3.2 0.00 0.00 0.00 78 1011.2
20260505080036 13 194 0.0 6.4 0.00 0.00 0.00 77 1011.2
20260505074538 14 186 0.0 6.4 0.00 0.00 0.00 75 1011.1
20260505073036 15 180 0.0 4.8 0.00 0.00 0.00 73 1011.1
20260505071651 15 180 0.0 4.8 0.00 0.00 0.00 70 1010.9
20260505070032 16 182 1.6 8.0 0.00 0.00 0.00 66 1010.7
20260505064533 17 157 0.0 4.8 0.00 0.00 0.00 61 1010.7
20260505063041 18 171 0.0 4.8 0.00 0.00 0.00 57 1010.6
20260505054534 20 245 4.8 19.3 0.00 0.00 0.00 51 1010.5
20260505051538 21 255 8.0 17.7 0.00 0.00 0.00 49 1010.2
20260505040049 22 253 6.4 14.5 0.00 0.00 0.00 44 1009.4
20260505033145 22 237 9.7 24.1 0.00 0.00 0.00 43 1009.0
20260505031536 22 247 9.7 20.9 0.00 0.00 0.00 43 1008.8
20260505030037 23 252 12.9 27.4 0.00 0.00 0.00 42 1008.6